JST760 YSSY-YPAD

Flight info

Callsign JST760
Flight time 1h 45m
Altitude 36000
Route MAXEM Q60 KAKLU H309 AD
Aircraft A320/M-SDE3FGHIRWY/LB1

Departure

Time 2026-04-23 15:17
Airport Sydney Kingsford Smith International Airport (YSSY)

Arrival

Time 2026-04-23 17:03
Airport Adelaide International Airport (YPAD)
Time Latitude Longitude Altitude Speed Heading
2026-04-23 14:48 -33.93524 151.17764 30 ft 0 kts 279°
2026-04-23 15:08 -33.93525 151.17772 30 ft 4 kts 278°
2026-04-23 15:08 -33.93527 151.17804 30 ft 4 kts 264°
2026-04-23 15:09 -33.93509 151.17841 30 ft 0 kts 190°
2026-04-23 15:11 -33.93518 151.17839 30 ft 5 kts 191°
2026-04-23 15:11 -33.93580 151.17826 30 ft 13 kts 190°
2026-04-23 15:11 -33.93658 151.17795 30 ft 12 kts 232°
2026-04-23 15:12 -33.93651 151.17722 30 ft 5 kts 285°
2026-04-23 15:12 -33.93646 151.17696 30 ft 6 kts 282°
2026-04-23 15:12 -33.93643 151.17671 30 ft 0 kts 278°
2026-04-23 15:13 -33.93642 151.17665 30 ft 0 kts 278°
2026-04-23 15:13 -33.93642 151.17661 30 ft 2 kts 276°
2026-04-23 15:13 -33.93642 151.17636 30 ft 4 kts 266°
2026-04-23 15:14 -33.93644 151.17587 29 ft 7 kts 273°
2026-04-23 15:14 -33.93607 151.17536 29 ft 10 kts 342°
2026-04-23 15:14 -33.93535 151.17515 29 ft 12 kts 346°
2026-04-23 15:14 -33.93451 151.17500 30 ft 13 kts 358°
2026-04-23 15:15 -33.93353 151.17498 30 ft 15 kts 346°
2026-04-23 15:15 -33.93245 151.17468 30 ft 16 kts 348°
2026-04-23 15:15 -33.93137 151.17441 30 ft 16 kts 346°
2026-04-23 15:15 -33.93034 151.17414 30 ft 16 kts 349°
2026-04-23 15:16 -33.92963 151.17331 30 ft 16 kts 285°
2026-04-23 15:16 -33.92985 151.17202 30 ft 17 kts 221°
2026-04-23 15:16 -33.93109 151.17204 31 ft 22 kts 168°
2026-04-23 15:16 -33.93441 151.17290 27 ft 83 kts 168°
2026-04-23 15:17 -33.94203 151.17488 30 ft 137 kts 168°
2026-04-23 15:17 -33.95258 151.17759 256 ft 161 kts 168°
2026-04-23 15:17 -33.96374 151.17936 933 ft 163 kts 178°
2026-04-23 15:17 -33.97531 151.17889 1419 ft 175 kts 179°
2026-04-23 15:18 -33.98827 151.17804 1714 ft 199 kts 181°
2026-04-23 15:18 -34.00295 151.17699 2060 ft 224 kts 181°
2026-04-23 15:18 -34.01934 151.17582 2524 ft 246 kts 180°
2026-04-23 15:18 -34.03659 151.17830 3264 ft 254 kts 163°
2026-04-23 15:19 -34.05383 151.18391 4176 ft 259 kts 163°
2026-04-23 15:19 -34.07130 151.18975 5074 ft 263 kts 162°
2026-04-23 15:19 -34.08907 151.19575 5954 ft 267 kts 162°
2026-04-23 15:19 -34.10708 151.20182 6840 ft 271 kts 162°
2026-04-23 15:20 -34.12533 151.20796 7686 ft 273 kts 162°
2026-04-23 15:20 -34.14434 151.21074 8497 ft 281 kts 183°
2026-04-23 15:20 -34.16316 151.20372 9316 ft 290 kts 208°
2026-04-23 15:20 -34.17801 151.18705 10141 ft 298 kts 235°
2026-04-23 15:21 -34.18526 151.16343 10860 ft 308 kts 262°
2026-04-23 15:21 -34.18292 151.13694 11116 ft 333 kts 291°
2026-04-23 15:21 -34.17144 151.11192 11496 ft 347 kts 303°
2026-04-23 15:21 -34.15784 151.08743 12130 ft 353 kts 305°
2026-04-23 15:22 -34.14378 151.06339 12809 ft 357 kts 305°
2026-04-23 15:22 -34.12928 151.03878 13494 ft 362 kts 305°
2026-04-23 15:22 -34.11476 151.01383 14194 ft 365 kts 304°
2026-04-23 15:22 -34.10028 150.98852 14811 ft 369 kts 304°
2026-04-23 15:23 -34.08576 150.96282 15424 ft 372 kts 303°
2026-04-23 15:23 -34.07121 150.93689 16042 ft 375 kts 303°
2026-04-23 15:23 -34.05655 150.91066 16653 ft 378 kts 303°
2026-04-23 15:23 -34.04183 150.88427 17267 ft 381 kts 303°
2026-04-23 15:24 -34.02697 150.85772 17898 ft 384 kts 303°
2026-04-23 15:24 -34.01197 150.83101 18511 ft 387 kts 303°
2026-04-23 15:24 -33.99684 150.80408 19078 ft 390 kts 303°
2026-04-23 15:24 -33.98151 150.77691 19641 ft 393 kts 303°
2026-04-23 15:25 -33.96603 150.74951 20209 ft 396 kts 303°
2026-04-23 15:25 -33.95055 150.72203 20788 ft 398 kts 303°
2026-04-23 15:25 -33.93495 150.69431 21347 ft 401 kts 303°
2026-04-23 15:25 -33.91925 150.66643 21883 ft 404 kts 303°
2026-04-23 15:26 -33.90344 150.63841 22430 ft 406 kts 303°
2026-04-23 15:26 -33.88746 150.61020 22952 ft 409 kts 303°
2026-04-23 15:26 -33.87135 150.58184 23492 ft 412 kts 303°
2026-04-23 15:26 -33.85584 150.55268 24018 ft 414 kts 295°
2026-04-23 15:27 -33.84652 150.52006 24448 ft 413 kts 278°
2026-04-23 15:27 -33.84489 150.48567 24880 ft 413 kts 267°
2026-04-23 15:27 -33.84520 150.45099 25303 ft 416 kts 267°
2026-04-23 15:27 -33.84552 150.41603 25731 ft 418 kts 267°
2026-04-23 15:28 -33.84580 150.38095 26148 ft 421 kts 267°
2026-04-23 15:28 -33.84606 150.34609 26541 ft 423 kts 267°
2026-04-23 15:28 -33.84630 150.31056 26942 ft 426 kts 267°
2026-04-23 15:28 -33.84650 150.27486 27345 ft 428 kts 267°
2026-04-23 15:29 -33.84668 150.23891 27727 ft 431 kts 267°
2026-04-23 15:29 -33.84686 150.20277 28103 ft 433 kts 267°
2026-04-23 15:29 -33.84703 150.16646 28472 ft 435 kts 268°
2026-04-23 15:29 -33.84718 150.12995 28874 ft 437 kts 268°
2026-04-23 15:30 -33.84733 150.09331 29264 ft 439 kts 268°
2026-04-23 15:30 -33.84750 150.05649 29630 ft 441 kts 268°
2026-04-23 15:30 -33.84763 150.01947 29998 ft 444 kts 268°
2026-04-23 15:30 -33.84773 149.98223 30364 ft 446 kts 268°
2026-04-23 15:31 -33.84783 149.94483 30702 ft 448 kts 268°
2026-04-23 15:31 -33.84795 149.90715 31009 ft 451 kts 268°
2026-04-23 15:31 -33.84808 149.86986 31301 ft 453 kts 267°
2026-04-23 15:31 -33.84819 149.83186 31591 ft 455 kts 267°
2026-04-23 15:32 -33.84824 149.79389 32014 ft 454 kts 267°
2026-04-23 15:32 -33.84829 149.75598 32442 ft 453 kts 267°
2026-04-23 15:32 -33.84829 149.71815 32871 ft 452 kts 267°
2026-04-23 15:32 -33.84829 149.68037 33302 ft 451 kts 266°
2026-04-23 15:33 -33.84830 149.64268 33727 ft 450 kts 266°
2026-04-23 15:33 -33.84834 149.60504 34157 ft 449 kts 266°
2026-04-23 15:33 -33.84838 149.56751 34545 ft 449 kts 265°
2026-04-23 15:33 -33.84839 149.53000 34881 ft 448 kts 265°
2026-04-23 15:34 -33.84837 149.49249 35221 ft 448 kts 265°
2026-04-23 15:34 -33.84831 149.45506 35562 ft 447 kts 265°
2026-04-23 15:34 -33.84823 149.41769 35889 ft 446 kts 265°
2026-04-23 15:34 -33.84816 149.38044 36219 ft 445 kts 265°
2026-04-23 15:35 -33.84808 149.34319 36458 ft 445 kts 265°
2026-04-23 15:35 -33.84790 149.26925 36513 ft 444 kts 264°
2026-04-23 15:36 -33.84775 149.19491 36505 ft 444 kts 264°
2026-04-23 15:36 -33.84751 149.12054 36506 ft 444 kts 265°
2026-04-23 15:37 -33.84722 149.04607 36507 ft 444 kts 264°
2026-04-23 15:37 -33.84694 148.98426 36490 ft 445 kts 264°
2026-04-23 15:38 -33.84653 148.89713 36491 ft 446 kts 264°
2026-04-23 15:38 -33.84610 148.82254 36502 ft 446 kts 264°
2026-04-23 15:39 -33.84559 148.74790 36480 ft 446 kts 264°
2026-04-23 15:39 -33.84504 148.67324 36484 ft 445 kts 262°
2026-04-23 15:40 -33.85305 148.60077 36489 ft 435 kts 252°
2026-04-23 15:40 -33.86416 148.52963 36491 ft 436 kts 252°
2026-04-23 15:41 -33.87522 148.45788 36470 ft 436 kts 252°
2026-04-23 15:41 -33.88621 148.38615 36484 ft 436 kts 252°
2026-04-23 15:42 -33.89721 148.31431 36485 ft 436 kts 252°
2026-04-23 15:42 -33.90813 148.24257 36481 ft 436 kts 252°
2026-04-23 15:43 -33.91902 148.17079 36465 ft 435 kts 252°
2026-04-23 15:43 -33.92984 148.09911 36470 ft 435 kts 252°
2026-04-23 15:44 -33.94064 148.02737 36472 ft 435 kts 252°
2026-04-23 15:44 -33.95140 147.95560 36475 ft 435 kts 252°
2026-04-23 15:45 -33.96214 147.88386 36452 ft 435 kts 252°
2026-04-23 15:45 -33.97273 147.81275 36462 ft 434 kts 252°
2026-04-23 15:46 -33.98332 147.74105 36477 ft 434 kts 252°
2026-04-23 15:46 -33.99386 147.66939 36468 ft 434 kts 252°
2026-04-23 15:47 -34.00439 147.59773 36458 ft 434 kts 252°
2026-04-23 15:47 -34.01488 147.52608 36460 ft 434 kts 252°
2026-04-23 15:48 -34.02530 147.45448 36463 ft 434 kts 252°
2026-04-23 15:48 -34.03573 147.38280 36469 ft 434 kts 252°
2026-04-23 15:49 -34.04610 147.31124 36463 ft 433 kts 252°
2026-04-23 15:49 -34.05638 147.23964 36464 ft 433 kts 252°
2026-04-23 15:50 -34.06653 147.16808 36470 ft 433 kts 252°
2026-04-23 15:50 -34.07677 147.09650 36452 ft 432 kts 252°
2026-04-23 15:51 -34.08701 147.02501 36449 ft 432 kts 253°
2026-04-23 15:51 -34.09705 146.95399 36451 ft 432 kts 253°
2026-04-23 15:52 -34.10707 146.88245 36448 ft 432 kts 253°
2026-04-23 15:52 -34.11714 146.81089 36428 ft 432 kts 253°
2026-04-23 15:53 -34.12546 146.75146 36441 ft 432 kts 253°
2026-04-23 15:53 -34.13539 146.67998 36447 ft 432 kts 253°
2026-04-23 15:54 -34.14522 146.60836 36445 ft 432 kts 253°
2026-04-23 15:54 -34.15507 146.53688 36448 ft 432 kts 253°
2026-04-23 15:55 -34.16490 146.46532 36448 ft 432 kts 253°
2026-04-23 15:55 -34.17467 146.39379 36444 ft 432 kts 253°
2026-04-23 15:56 -34.18439 146.32217 36448 ft 432 kts 253°
2026-04-23 15:56 -34.19407 146.25064 36433 ft 431 kts 254°
2026-04-23 15:57 -34.20368 146.17957 36435 ft 431 kts 254°
2026-04-23 15:57 -34.21328 146.10812 36439 ft 431 kts 254°
2026-04-23 15:58 -34.22280 146.03662 36423 ft 431 kts 254°
2026-04-23 15:58 -34.23235 145.96514 36430 ft 430 kts 254°
2026-04-23 15:59 -34.24183 145.89363 36435 ft 430 kts 255°
2026-04-23 15:59 -34.25124 145.82219 36430 ft 430 kts 255°
2026-04-23 16:00 -34.26047 145.75119 36415 ft 430 kts 255°
2026-04-23 16:00 -34.26979 145.67985 36423 ft 429 kts 255°
2026-04-23 16:01 -34.27902 145.60854 36427 ft 429 kts 255°
2026-04-23 16:01 -34.28822 145.53716 36424 ft 429 kts 255°
2026-04-23 16:02 -34.29743 145.46590 36416 ft 429 kts 255°
2026-04-23 16:02 -34.30658 145.39469 36423 ft 428 kts 255°
2026-04-23 16:03 -34.31568 145.32349 36423 ft 428 kts 256°
2026-04-23 16:03 -34.32467 145.25229 36407 ft 428 kts 256°
2026-04-23 16:04 -34.33363 145.18119 36416 ft 427 kts 256°
2026-04-23 16:04 -34.34262 145.11011 36421 ft 427 kts 256°
2026-04-23 16:05 -34.35001 145.05109 36424 ft 427 kts 256°
2026-04-23 16:05 -34.36029 144.96849 36413 ft 427 kts 256°
2026-04-23 16:06 -34.36900 144.89745 36420 ft 426 kts 257°
2026-04-23 16:06 -34.37772 144.82648 36420 ft 426 kts 256°
2026-04-23 16:07 -34.38646 144.75549 36423 ft 426 kts 256°
2026-04-23 16:07 -34.39515 144.68454 36412 ft 426 kts 257°
2026-04-23 16:08 -34.40378 144.61355 36414 ft 426 kts 257°
2026-04-23 16:08 -34.41237 144.54266 36419 ft 426 kts 257°
2026-04-23 16:09 -34.42089 144.47170 36410 ft 425 kts 257°
2026-04-23 16:09 -34.42933 144.40076 36417 ft 425 kts 257°
2026-04-23 16:10 -34.43775 144.32986 36412 ft 425 kts 257°
2026-04-23 16:10 -34.44613 144.25901 36420 ft 425 kts 257°
2026-04-23 16:11 -34.45446 144.18862 36410 ft 425 kts 258°
2026-04-23 16:11 -34.46274 144.11776 36416 ft 425 kts 258°
2026-04-23 16:12 -34.47096 144.04687 36419 ft 424 kts 258°
2026-04-23 16:12 -34.47918 143.97598 36416 ft 424 kts 258°
2026-04-23 16:13 -34.48744 143.90516 36421 ft 424 kts 258°
2026-04-23 16:13 -34.49968 143.79884 36421 ft 424 kts 258°
2026-04-23 16:14 -34.50765 143.72794 36401 ft 424 kts 258°
2026-04-23 16:14 -34.51556 143.65750 36415 ft 424 kts 258°
2026-04-23 16:15 -34.52363 143.58668 36420 ft 424 kts 258°
2026-04-23 16:15 -34.53158 143.51573 36409 ft 424 kts 258°
2026-04-23 16:16 -34.53946 143.44490 36410 ft 424 kts 259°
2026-04-23 16:16 -34.54729 143.37407 36413 ft 424 kts 259°
2026-04-23 16:17 -34.55516 143.30318 36417 ft 423 kts 259°
2026-04-23 16:17 -34.56295 143.23240 36408 ft 423 kts 259°
2026-04-23 16:18 -34.57062 143.16151 36408 ft 423 kts 259°
2026-04-23 16:18 -34.57827 143.09072 36410 ft 423 kts 259°
2026-04-23 16:19 -34.58600 143.01992 36411 ft 423 kts 259°
2026-04-23 16:19 -34.59359 142.94911 36404 ft 423 kts 259°
2026-04-23 16:20 -34.60109 142.87826 36407 ft 423 kts 259°
2026-04-23 16:20 -34.60861 142.80750 36406 ft 423 kts 259°
2026-04-23 16:21 -34.61605 142.73663 36401 ft 423 kts 260°
2026-04-23 16:21 -34.62344 142.66636 36406 ft 422 kts 260°
2026-04-23 16:22 -34.63085 142.59557 36408 ft 422 kts 260°
2026-04-23 16:22 -34.63764 142.52475 36406 ft 423 kts 262°
2026-04-23 16:23 -34.64184 142.45352 36403 ft 423 kts 264°
2026-04-23 16:23 -34.64515 142.38213 36408 ft 423 kts 264°
2026-04-23 16:24 -34.64884 142.31090 36407 ft 422 kts 263°
2026-04-23 16:24 -34.65281 142.23976 36398 ft 422 kts 263°
2026-04-23 16:25 -34.65683 142.16846 36406 ft 422 kts 263°
2026-04-23 16:25 -34.66075 142.09742 36406 ft 421 kts 263°
2026-04-23 16:26 -34.66457 142.02641 36395 ft 421 kts 264°
2026-04-23 16:26 -34.66835 141.95545 36400 ft 421 kts 264°
2026-04-23 16:27 -34.67210 141.88487 36399 ft 421 kts 264°
2026-04-23 16:27 -34.67577 141.81388 36402 ft 421 kts 264°
2026-04-23 16:28 -34.67943 141.74300 36401 ft 420 kts 264°
2026-04-23 16:28 -34.68306 141.67210 36397 ft 420 kts 264°
2026-04-23 16:29 -34.68668 141.60123 36397 ft 420 kts 264°
2026-04-23 16:29 -34.69016 141.53038 36397 ft 420 kts 264°
2026-04-23 16:30 -34.69357 141.45955 36395 ft 420 kts 264°
2026-04-23 16:30 -34.69701 141.38866 36395 ft 420 kts 264°
2026-04-23 16:31 -34.70045 141.31784 36386 ft 420 kts 265°
2026-04-23 16:31 -34.70380 141.24708 36390 ft 420 kts 265°
2026-04-23 16:32 -34.70713 141.17625 36391 ft 419 kts 265°
2026-04-23 16:32 -34.71045 141.10531 36387 ft 419 kts 265°
2026-04-23 16:33 -34.71371 141.03453 36386 ft 419 kts 265°
2026-04-23 16:33 -34.71694 140.96387 36388 ft 419 kts 265°
2026-04-23 16:34 -34.72012 140.89318 36388 ft 419 kts 265°
2026-04-23 16:34 -34.72316 140.82301 36393 ft 418 kts 265°
2026-04-23 16:35 -34.72617 140.75235 36386 ft 418 kts 265°
2026-04-23 16:35 -34.72922 140.68179 36383 ft 418 kts 265°
2026-04-23 16:36 -34.73222 140.61118 36378 ft 418 kts 265°
2026-04-23 16:36 -34.73513 140.54060 36087 ft 417 kts 265°
2026-04-23 16:37 -34.73657 140.50545 35842 ft 415 kts 265°
2026-04-23 16:37 -34.73798 140.47044 35596 ft 414 kts 265°
2026-04-23 16:37 -34.73892 140.44726 35435 ft 414 kts 265°
2026-04-23 16:37 -34.74036 140.41237 35181 ft 413 kts 265°
2026-04-23 16:38 -34.74181 140.37745 34949 ft 411 kts 266°
2026-04-23 16:38 -34.74323 140.34280 34709 ft 410 kts 266°
2026-04-23 16:38 -34.74459 140.30836 34447 ft 407 kts 266°
2026-04-23 16:38 -34.74593 140.27407 33956 ft 405 kts 266°
2026-04-23 16:39 -34.74727 140.24000 33488 ft 402 kts 265°
2026-04-23 16:39 -34.74858 140.20614 33012 ft 400 kts 265°
2026-04-23 16:39 -34.74985 140.17245 32546 ft 397 kts 265°
2026-04-23 16:39 -34.75110 140.13890 32091 ft 395 kts 265°
2026-04-23 16:40 -34.75236 140.10565 31633 ft 393 kts 265°
2026-04-23 16:40 -34.75361 140.07249 31194 ft 391 kts 265°
2026-04-23 16:40 -34.75484 140.03950 30754 ft 390 kts 265°
2026-04-23 16:40 -34.75605 140.00662 30315 ft 389 kts 265°
2026-04-23 16:41 -34.75725 139.97390 29860 ft 386 kts 265°
2026-04-23 16:41 -34.75843 139.94141 29448 ft 383 kts 265°
2026-04-23 16:41 -34.75962 139.90917 29045 ft 380 kts 265°
2026-04-23 16:41 -34.76077 139.87709 28641 ft 378 kts 265°
2026-04-23 16:42 -34.76188 139.84521 28240 ft 377 kts 266°
2026-04-23 16:42 -34.76297 139.81348 27842 ft 375 kts 266°
2026-04-23 16:42 -34.76408 139.78186 27434 ft 374 kts 266°
2026-04-23 16:42 -34.76521 139.75029 27024 ft 373 kts 266°
2026-04-23 16:43 -34.76631 139.71887 26616 ft 371 kts 266°
2026-04-23 16:43 -34.76738 139.68790 26195 ft 370 kts 266°
2026-04-23 16:43 -34.76845 139.65657 25775 ft 370 kts 266°
2026-04-23 16:43 -34.76950 139.62532 25338 ft 369 kts 266°
2026-04-23 16:44 -34.77057 139.59408 24900 ft 369 kts 266°
2026-04-23 16:44 -34.77162 139.56291 24459 ft 369 kts 267°
2026-04-23 16:44 -34.77266 139.53173 24013 ft 369 kts 267°
2026-04-23 16:44 -34.77369 139.50053 23511 ft 368 kts 267°
2026-04-23 16:45 -34.77469 139.46953 23063 ft 366 kts 267°
2026-04-23 16:45 -34.77570 139.43875 22616 ft 363 kts 266°
2026-04-23 16:45 -34.77958 139.40861 22171 ft 360 kts 254°
2026-04-23 16:45 -34.78867 139.38040 21736 ft 357 kts 245°
2026-04-23 16:46 -34.79917 139.35309 21292 ft 355 kts 245°
2026-04-23 16:46 -34.80959 139.32590 20852 ft 353 kts 245°
2026-04-23 16:46 -34.81992 139.29883 20416 ft 352 kts 245°
2026-04-23 16:46 -34.83015 139.27190 19984 ft 350 kts 245°
2026-04-23 16:47 -34.84020 139.24536 19556 ft 349 kts 246°
2026-04-23 16:47 -34.85034 139.21853 19117 ft 348 kts 246°
2026-04-23 16:47 -34.86045 139.19183 18697 ft 347 kts 246°
2026-04-23 16:47 -34.87056 139.16522 18227 ft 346 kts 246°
2026-04-23 16:48 -34.88060 139.13873 17794 ft 343 kts 246°
2026-04-23 16:48 -34.89056 139.11239 17378 ft 341 kts 246°
2026-04-23 16:48 -34.90046 139.08625 16958 ft 339 kts 246°
2026-04-23 16:48 -34.91031 139.06029 16541 ft 336 kts 247°
2026-04-23 16:49 -34.91691 139.04283 16260 ft 335 kts 247°
2026-04-23 16:49 -34.92976 139.00873 15721 ft 333 kts 247°
2026-04-23 16:49 -34.93937 138.98317 15313 ft 331 kts 247°
2026-04-23 16:49 -34.94893 138.95769 14909 ft 330 kts 248°
2026-04-23 16:50 -34.95848 138.93230 14510 ft 329 kts 247°
2026-04-23 16:50 -34.96802 138.90696 14102 ft 328 kts 247°
2026-04-23 16:50 -34.97754 138.88166 13664 ft 327 kts 246°
2026-04-23 16:50 -34.98699 138.85651 13267 ft 326 kts 247°
2026-04-23 16:51 -34.99639 138.83145 12865 ft 324 kts 246°
2026-04-23 16:51 -35.00575 138.80646 12472 ft 323 kts 247°
2026-04-23 16:51 -35.01506 138.78160 12077 ft 321 kts 247°
2026-04-23 16:51 -35.02435 138.75681 11685 ft 320 kts 247°
2026-04-23 16:52 -35.03360 138.73214 11273 ft 319 kts 246°
2026-04-23 16:52 -35.04282 138.70750 10874 ft 318 kts 247°
2026-04-23 16:52 -35.05190 138.68320 10496 ft 317 kts 247°
2026-04-23 16:52 -35.06102 138.65874 10165 ft 314 kts 247°
2026-04-23 16:53 -35.06994 138.63488 10020 ft 305 kts 247°
2026-04-23 16:53 -35.07859 138.61165 9844 ft 296 kts 247°
2026-04-23 16:53 -35.08697 138.58910 9717 ft 287 kts 247°
2026-04-23 16:53 -35.09512 138.56720 9507 ft 281 kts 247°
2026-04-23 16:54 -35.10311 138.54571 9027 ft 276 kts 246°
2026-04-23 16:54 -35.11059 138.52426 8471 ft 273 kts 255°
2026-04-23 16:54 -35.11319 138.50155 7902 ft 270 kts 274°
2026-04-23 16:54 -35.10963 138.47892 7195 ft 273 kts 292°
2026-04-23 16:55 -35.10084 138.45824 6513 ft 275 kts 304°
2026-04-23 16:55 -35.08752 138.44167 5777 ft 275 kts 329°
2026-04-23 16:55 -35.06943 138.43266 5050 ft 291 kts 347°
2026-04-23 16:55 -35.04959 138.42660 4374 ft 291 kts 351°
2026-04-23 16:56 -35.02994 138.42760 3803 ft 276 kts 18°
2026-04-23 16:56 -35.01400 138.43858 3089 ft 255 kts 38°
2026-04-23 16:56 -35.00238 138.45385 2426 ft 239 kts 53°
2026-04-23 16:56 -34.99639 138.47193 2074 ft 221 kts 71°
2026-04-23 16:57 -34.99335 138.48919 2008 ft 204 kts 81°
2026-04-23 16:57 -34.99533 138.50655 2004 ft 211 kts 112°
2026-04-23 16:57 -35.00532 138.51989 2010 ft 221 kts 144°
2026-04-23 16:57 -35.01885 138.52875 2017 ft 225 kts 151°
2026-04-23 16:58 -35.03386 138.53461 2014 ft 229 kts 174°
2026-04-23 16:58 -35.04951 138.53148 2009 ft 231 kts 206°
2026-04-23 16:58 -35.06177 138.51949 2012 ft 225 kts 239°
2026-04-23 16:58 -35.06753 138.50231 2012 ft 216 kts 269°
2026-04-23 16:59 -35.06626 138.48483 2011 ft 197 kts 296°
2026-04-23 16:59 -35.05970 138.47115 2035 ft 174 kts 319°
2026-04-23 16:59 -35.05102 138.46292 2009 ft 146 kts 338°
2026-04-23 16:59 -35.04182 138.45902 2009 ft 137 kts 351°
2026-04-23 17:00 -35.03260 138.45627 2006 ft 136 kts 350°
2026-04-23 17:00 -35.02336 138.45350 2009 ft 136 kts 351°
2026-04-23 17:00 -35.01417 138.45094 2009 ft 135 kts 357°
2026-04-23 17:00 -35.00506 138.45268 2010 ft 135 kts 25°
2026-04-23 17:01 -34.99769 138.45993 1868 ft 139 kts 49°
2026-04-23 17:01 -34.99128 138.46979 1139 ft 164 kts 51°
2026-04-23 17:01 -34.98399 138.48071 695 ft 161 kts 48°
2026-04-23 17:01 -34.97703 138.49055 502 ft 145 kts 48°
2026-04-23 17:02 -34.97277 138.49664 377 ft 139 kts 47°
2026-04-23 17:02 -34.96462 138.50832 211 ft 133 kts 50°
2026-04-23 17:02 -34.95866 138.51716 60 ft 134 kts 47°
2026-04-23 17:02 -34.95294 138.52530 21 ft 103 kts 50°
2026-04-23 17:03 -34.95029 138.52919 22 ft 16 kts 48°
2026-04-23 17:03 -34.95008 138.52945 22 ft 8 kts 45°
2026-04-23 17:03 -34.94926 138.52991 22 ft 18 kts
2026-04-23 17:03 -34.94797 138.53024 22 ft 20 kts 19°
2026-04-23 17:04 -34.94666 138.53082 23 ft 21 kts 19°
2026-04-23 17:04 -34.94533 138.53148 22 ft 20 kts 25°
2026-04-23 17:04 -34.94513 138.53285 23 ft 18 kts 88°
2026-04-23 17:04 -34.94455 138.53421 23 ft 19 kts 49°
2026-04-23 17:05 -34.94365 138.53550 23 ft 21 kts 49°
2026-04-23 17:05 -34.94275 138.53656 24 ft 15 kts 17°
2026-04-23 17:05 -34.94175 138.53659 25 ft 15 kts 37°
2026-04-23 17:05 -34.94105 138.53711 26 ft 10 kts 333°
2026-04-23 17:06 -34.94065 138.53671 27 ft 7 kts 321°
2026-04-23 17:06 -34.94055 138.53660 27 ft 0 kts 320°